Skip Page Navigation
NASA JPL Caltech
NASA Logo - Jet Propulsion Laboratory + View the NASA Portal
+ Near-Earth Object (NEO) Program
Search JPL
JPL Home Earth Solar System Stars & Galaxies Technology
JPL Solar System Dynamics
BODIES ORBITS EPHEMERIDES TOOLS PHYSICAL DATA DISCOVERY FAQ SITE MAP
JPL Small-Body Database Browser
Search: [ help ]  
10593 Susannesandra (1996 QQ1)
Classification: Main-belt Asteroid          SPK-ID: 2010593
Ephemeris | Orbit Diagram | Orbital Elements | Physical Parameters | Discovery Circumstances ]

[ show orbit diagram ]
Orbital Elements at Epoch 2456400.5 (2013-Apr-18.0) TDB
Reference: MPO234900 (heliocentric ecliptic J2000)
 Element Value Uncertainty (1-sigma)   Units 
e 0.2065976 n/a  
a 3.1229964 n/a AU
q 2.4777928 n/a AU
i 2.13742 n/a deg
node 108.44200 n/a deg
peri 276.53533 n/a deg
M 340.05438 n/a deg
tp 2456512.1865022
(2013-Aug-07.68650220)
n/a JED
period 2015.8381040
5.52
n/a
n/a
d
yr
n 0.17858577 n/a deg/d
Q 3.7682000 n/a AU
  Orbit Determination Parameters
   # obs. used (total)      976  
   first obs. used      1991-??-??  
   last obs. used      2012-07-20  
   # oppositions      15  
   planetary ephem.      DE403  
   condition code      0  
   fit RMS      0.58  
   data source      MPC:mpn  
   producer      MPCLINUX  

Additional Information
 T_jup = 3.181 

Ephemeris | Orbit Diagram | Orbital Elements | Physical Parameters | Discovery Circumstances ]

Physical Parameter Table
Parameter Symbol Value Units Sigma Reference Notes
absolute magnitude H 13.4 mag n/a PDS3 (MPC 34461)  

10593 Susannesandra           Discovered 1996 Aug. 25 by R. G. Sandness at King City.
Susanne Sandness (b. 1956), wife of 34 years of the discoverer, is an accomplished musician and music teacher. It was through her support that this discovery was made.
NOTE: some special characters may not display properly (any characters within {} are an attempt to place the proper accent above a character)
Reference: 20120207/MPCPages.arcLast Updated: 2012-02-09

Alternate Designations
 1996 QQ1 = 1991 XH2 
Ephemeris | Orbit Diagram | Orbital Elements | Physical Parameters | Discovery Circumstances ]
ABOUT SSD CREDITS/AWARDS PRIVACY/COPYRIGHT GLOSSARY LINKS
FirstGov 2013-Jun-18 06:19 UT
(server date/time)  
NASA Home Page
Site Manager:   Donald K. Yeomans
Webmaster  Alan B. Chamberlin